GEFSSE_500_meanwind_294.txt.gz
Wind_Speed
2 3 3 3 3 2 2 2 2 2 2 2 2 2 3 3 3 3 3 2 3 3 3 3 3 3 3 3 3 3 3 3 4 4 4 5 6 6 6 6 6 6 6
4 4 4 4 4 4 3 3 3 3 3 3 3 3 3 3 3 4 4 3 4 4 4 4 4 5 4 4 4 4 4 4 5 5 5 6 7 7 7 7 7 7 7
4 4 4 5 4 4 4 4 5 4 4 5 4 4 4 4 4 4 4 4 4 5 5 5 5 6 5 5 5 5 5 6 6 5 5 5 6 7 7 8 8 8 8
5 5 5 5 5 5 6 5 5 6 6 5 5 5 5 5 5 6 5 5 5 6 6 6 6 7 7 7 7 7 7 7 7 6 7 7 7 8 8 8 9 10 9
5 5 6 6 6 6 6 6 6 6 6 6 5 6 6 5 5 6 6 6 6 6 6 7 7 8 8 8 7 7 7 7 7 8 8 8 8 9 9 9 9 10 10
6 6 6 6 6 6 6 6 6 6 6 6 6 6 6 6 6 6 6 6 6 6 6 6 7 7 8 8 8 8 8 8 8 8 8 9 9 8 9 10 10 11 11
6 7 6 6 6 6 6 6 7 7 6 6 6 6 6 6 7 7 7 7 7 7 7 7 8 8 8 9 9 9 9 9 9 9 9 10 10 10 10 11 11 12 12
7 7 7 7 7 6 6 6 6 6 6 7 7 7 7 7 7 7 8 8 8 8 8 8 8 8 9 9 9 9 10 11 11 11 11 11 11 11 11 11 12 12 13
6 7 6 6 7 7 7 7 7 6 6 6 7 7 7 7 7 8 8 8 9 9 9 9 9 9 9 9 10 10 10 11 11 11 11 11 11 11 12 12 13 13 13
6 6 6 6 7 7 7 7 7 7 7 7 7 6 6 7 7 7 8 8 8 9 9 10 10 10 10 10 10 10 11 11 11 11 12 12 12 12 13 13 13 14 13
6 6 6 6 6 7 7 7 7 8 7 7 6 6 7 7 7 7 8 8 8 9 10 10 11 10 10 10 11 11 11 12 12 12 12 12 12 12 13 13 14 14 14
6 6 6 6 6 7 7 7 8 8 7 8 8 7 7 7 7 8 8 8 9 10 10 10 10 11 10 10 11 11 12 12 13 13 13 12 12 12 13 13 13 13 14
6 6 6 6 6 7 7 7 7 7 8 8 8 8 8 8 8 8 9 10 10 10 11 11 11 11 11 11 12 12 13 13 13 13 13 13 13 13 13 13 14 13 13
6 6 6 7 7 7 7 7 6 7 7 8 8 8 8 9 9 9 9 10 10 10 11 11 12 12 12 13 13 13 13 13 13 14 13 13 13 13 13 14 14 14 14
6 6 6 7 7 8 7 7 7 7 7 7 8 8 9 9 10 9 9 9 10 11 11 11 12 12 13 13 14 14 14 14 14 14 14 13 13 13 13 14 14 14 15
7 7 7 8 8 8 7 7 7 7 8 8 8 9 9 9 10 10 10 10 11 11 12 12 12 12 13 14 14 14 14 14 14 14 14 13 13 13 13 13 13 14 14
7 8 8 8 8 8 8 8 8 8 8 9 9 10 10 10 10 11 11 12 12 12 12 13 13 13 14 14 14 14 14 14 14 15 15 14 14 13 13 13 13 13 14
8 9 8 8 8 8 8 8 8 8 9 9 10 10 11 11 12 12 13 13 13 13 13 13 14 14 14 14 14 14 14 13 13 14 15 15 15 15 14 13 13 13 13
9 9 9 8 9 9 9 9 9 9 9 10 10 11 12 12 12 13 13 14 14 14 14 14 14 14 14 14 14 14 14 14 14 14 15 15 15 15 15 14 14 13 13
10 10 10 10 10 9 9 10 9 9 10 11 11 12 12 13 13 13 14 15 15 15 15 15 15 15 15 14 14 15 15 14 14 14 15 15 15 15 15 15 14 13 13
11 11 11 11 11 11 11 11 11 11 12 12 12 13 13 13 14 14 14 14 14 15 15 16 15 15 15 14 14 15 14 14 14 15 15 14 14 15 16 15 15 14 14
12 12 12 11 12 12 12 12 12 13 13 13 14 14 14 14 15 15 15 15 15 15 16 15 15 15 15 14 14 14 14 14 15 15 15 15 15 15 15 15 15 16 15
13 13 13 13 13 13 13 13 13 13 13 14 14 14 15 15 15 15 15 16 16 15 15 15 14 14 14 14 14 14 14 14 15 15 15 15 15 15 15 15 15 15 15
14 14 14 14 14 14 14 14 14 14 14 15 15 15 15 16 16 16 16 17 16 15 15 14 14 14 14 14 14 14 15 15 15 14 15 15 16 15 15 15 16 15 15
15 15 15 15 15 15 15 15 15 15 15 15 16 16 16 16 16 16 16 16 16 15 15 15 14 14 14 14 14 14 15 15 15 15 15 16 16 16 16 16 16 15 15
15 15 15 16 16 16 16 16 15 15 16 16 16 17 17 17 17 17 17 16 16 15 15 15 15 15 14 14 14 15 15 16 16 16 16 17 17 17 17 17 16 16 15

GEFSSE_500_meanwind_300.txt.gz
Wind_Speed
5 5 5 5 4 4 5 5 4 4 4 3 3 3 4 4 4 5 5 5 5 5 4 4 4 4 4 3 3 2 3 3 4 4 5 5 6 6 5 5 5 5 6
6 6 5 5 5 5 5 5 5 4 4 4 4 4 4 5 5 5 6 6 5 5 5 5 5 6 6 5 4 4 4 4 5 5 6 7 7 7 6 7 6 6 7
6 5 6 6 6 6 6 5 5 5 5 5 5 5 6 5 6 6 6 6 6 6 6 6 6 7 7 6 6 6 6 6 6 6 7 7 7 8 8 8 7 7 7
6 6 6 7 7 7 6 6 6 6 5 5 5 5 5 5 5 6 6 6 6 6 6 6 6 7 7 7 7 7 7 7 7 7 6 6 7 8 8 9 9 8 8
6 7 7 7 7 7 7 7 7 6 6 6 6 5 6 6 5 5 6 6 6 6 6 6 6 7 7 7 7 8 8 7 7 8 7 7 8 8 9 10 10 10 10
7 7 7 7 7 7 7 7 7 7 7 7 7 7 7 6 6 6 6 6 7 7 7 7 7 8 8 8 8 8 9 9 9 9 9 9 9 9 10 10 10 11 11
7 7 7 7 7 7 8 7 7 7 7 7 7 7 7 7 7 6 7 7 7 8 8 8 8 9 9 9 10 11 11 11 10 10 10 10 10 10 10 11 11 11 11
7 7 8 8 8 7 7 7 7 6 6 6 7 7 8 8 7 7 7 8 8 8 9 9 9 10 10 10 11 11 11 11 11 11 11 12 12 12 12 12 12 12 12
7 7 7 8 8 8 7 7 7 7 7 8 7 8 8 8 8 8 8 9 9 9 10 10 11 11 11 11 11 12 12 12 12 12 12 12 12 12 12 13 13 13 13
7 7 7 7 8 8 8 8 8 8 8 9 8 8 8 8 8 7 8 9 9 10 11 11 12 13 13 13 13 13 13 13 13 13 12 13 13 13 13 13 13 14 14
6 7 7 7 7 8 8 8 8 9 9 9 9 9 9 9 9 9 9 9 10 11 11 12 13 14 14 14 14 14 14 14 14 13 13 13 13 13 14 13 13 14 14
7 6 7 7 7 7 8 8 8 9 9 9 9 9 10 9 9 10 10 11 11 11 12 12 12 13 13 14 14 14 14 14 15 14 14 14 14 14 14 14 14 14 14
7 7 7 7 7 8 8 8 9 9 9 9 9 10 10 10 10 10 10 11 12 12 12 13 13 13 13 14 14 14 14 14 15 15 15 15 15 14 15 15 15 14 14
7 7 7 7 8 8 8 9 9 9 9 9 10 10 11 11 11 11 10 11 11 12 12 13 13 14 14 14 15 15 15 15 15 16 15 15 15 15 15 15 15 15 14
7 7 8 8 8 8 8 8 8 9 9 9 10 10 10 11 11 11 11 11 11 12 12 13 13 14 14 14 15 15 16 16 15 16 16 16 15 15 15 15 15 15 14
8 8 8 8 8 8 9 9 8 9 9 9 10 10 11 12 12 12 12 12 13 13 13 13 13 14 14 14 15 15 15 15 15 16 16 16 16 16 15 15 15 15 15
8 8 8 9 9 9 9 10 10 10 10 11 11 12 12 12 13 14 13 14 14 14 14 14 14 14 15 15 14 14 15 15 15 15 15 16 16 15 15 15 15 14 14
9 9 9 9 10 10 10 11 11 11 11 12 12 13 14 14 14 15 14 14 14 14 14 15 15 14 15 15 15 15 15 15 15 15 16 15 16 16 16 15 14 14 14
11 10 11 11 11 11 11 12 12 12 13 13 14 14 15 15 15 15 15 15 15 15 15 15 16 15 15 15 15 15 15 15 15 16 15 15 15 16 16 16 15 14 14
12 12 13 13 13 12 13 13 13 13 13 14 15 15 15 16 16 15 15 15 15 15 15 16 16 16 16 16 16 16 16 15 15 16 15 15 15 16 16 16 15 14 13
13 14 14 13 13 14 14 14 14 14 14 15 15 16 16 16 16 16 16 16 16 16 16 17 17 17 16 16 16 15 15 16 15 15 15 15 14 15 15 15 15 14 14
14 14 14 13 14 14 14 15 15 15 16 16 16 16 16 16 16 16 16 16 16 16 17 17 16 16 15 15 15 15 15 15 15 15 15 14 15 15 15 15 15 14 15
14 15 15 15 15 15 15 16 16 16 15 16 16 16 16 16 16 16 17 17 17 17 17 16 16 16 15 16 15 15 15 15 15 15 15 15 15 15 15 16 15 16 15
16 16 15 16 16 16 16 15 16 16 16 16 16 16 16 17 17 17 17 17 17 17 17 17 16 16 16 16 16 16 16 16 15 15 15 15 15 15 15 15 16 16 16
16 16 16 16 16 17 16 16 17 17 17 17 17 17 18 18 18 18 18 18 18 19 18 18 17 17 17 17 17 17 17 16 16 15 15 15 14 14 14 14 15 16 17
17 17 17 17 17 17 17 18 18 18 18 18 18 18 18 18 18 18 18 19 19 19 18 18 18 18 18 18 18 17 17 17 17 16 16 15 14 15 14 14 15 15 15

GEFSSE_500_meanwind_306.txt.gz
Wind_Speed
4 3 4 4 4 3 3 3 4 4 4 4 5 5 5 5 5 5 6 6 6 7 7 6 6 5 5 5 5 4 4 4 4 5 5 6 6 6 6 6 7 7 7
4 4 5 5 4 4 4 4 5 5 5 6 6 6 5 6 6 6 6 6 7 7 7 7 7 6 6 6 6 6 5 5 5 6 6 7 7 7 7 7 7 8 8
4 5 5 6 6 5 5 5 6 6 6 6 6 6 6 6 6 6 7 7 7 7 7 7 7 7 7 8 7 7 6 6 6 7 7 8 8 8 8 8 8 8 8
4 4 5 6 6 6 6 6 7 7 7 6 6 6 7 6 6 7 7 7 8 8 8 8 8 8 7 8 7 7 7 7 7 8 9 8 9 9 8 8 8 9 9
4 4 5 5 6 6 6 6 7 7 7 7 7 6 7 8 8 8 8 8 8 8 9 9 9 9 8 8 8 8 8 8 8 8 8 8 8 9 9 9 10 10 10
5 5 5 5 5 6 6 7 7 7 7 7 8 8 8 8 8 9 9 8 8 9 9 9 9 10 10 9 9 9 9 9 9 9 8 8 9 9 9 10 10 11 11
4 5 5 5 6 6 7 7 7 7 7 8 8 8 8 8 8 9 9 9 9 9 10 10 9 10 10 10 9 9 9 10 10 10 9 9 9 10 10 10 11 11 12
4 4 5 5 5 6 7 7 8 8 8 8 8 7 7 7 8 8 9 9 9 10 10 10 10 10 11 11 11 11 10 11 11 11 11 11 10 11 12 12 12 13 13
4 4 5 6 6 6 7 7 7 7 7 7 8 7 7 7 7 8 9 9 10 11 11 11 11 11 12 12 12 12 12 11 12 12 12 12 12 13 13 13 14 14 14
4 4 5 6 6 7 7 7 7 7 7 7 8 8 8 7 8 9 9 10 10 11 11 12 12 13 13 13 13 13 13 13 13 13 13 13 14 14 14 14 14 14 14
4 5 5 6 6 7 7 7 8 8 8 8 8 8 9 9 9 10 10 11 11 11 12 12 13 13 13 14 14 14 14 15 15 14 14 14 14 14 14 14 15 15 15
5 5 5 5 6 7 7 7 7 7 8 8 9 9 9 9 10 10 11 11 12 12 12 13 13 13 13 14 15 15 14 15 15 15 15 15 15 14 14 15 15 15 15
6 5 5 5 6 6 6 6 7 7 8 8 9 9 10 10 10 10 11 11 12 12 12 13 13 13 13 14 15 15 15 15 15 16 16 16 15 15 15 15 15 14 14
6 6 6 6 6 5 6 6 7 7 8 8 9 9 10 10 10 11 11 11 12 12 12 13 13 14 14 14 14 15 15 15 15 16 16 16 15 15 15 15 14 14 14
6 7 7 6 7 7 7 7 7 8 8 8 9 9 10 10 11 11 11 11 12 12 12 12 12 13 13 14 14 14 14 14 14 15 15 15 15 15 15 15 14 14 14
7 7 8 8 8 8 8 8 8 8 8 9 9 10 10 11 11 11 11 12 12 12 12 13 13 13 13 14 14 14 14 14 14 14 15 15 14 14 14 15 14 14 14
7 8 8 9 9 9 9 10 9 9 10 10 10 11 11 11 12 12 12 12 12 12 13 13 13 13 13 14 14 13 13 14 14 14 14 14 14 14 14 14 14 14 14
8 8 9 9 10 10 11 11 10 10 10 11 12 12 12 12 13 13 13 13 13 13 13 13 14 14 14 14 14 14 14 14 14 14 14 14 15 14 14 14 14 14 14
9 9 10 10 10 11 11 11 11 11 11 12 12 13 13 14 14 14 14 14 14 14 14 14 14 14 14 14 15 15 15 15 15 15 15 15 15 15 15 15 15 14 14
10 10 11 11 11 11 11 11 12 12 12 13 14 13 13 14 14 14 14 15 15 15 15 14 14 14 14 14 14 15 15 15 15 15 15 16 15 15 15 15 15 15 15
10 11 11 12 12 11 12 12 12 13 14 14 14 13 13 13 14 14 14 14 14 14 14 14 15 15 14 14 15 15 14 14 15 15 15 16 16 16 15 15 15 15 15
10 11 12 12 12 12 13 13 14 14 14 14 15 14 14 13 13 14 14 15 15 15 15 15 15 15 15 15 14 14 14 13 13 14 15 16 15 16 17 17 16 16 15
11 12 12 13 13 13 13 13 14 14 15 15 15 14 14 14 14 14 15 15 15 15 15 16 15 15 15 15 14 13 13 13 13 14 14 14 14 15 16 17 17 17 16
12 13 13 13 13 14 14 14 14 14 15 15 14 14 15 15 14 14 15 15 15 16 16 16 16 16 15 15 14 14 14 14 15 15 15 14 14 15 16 17 18 18 18
13 13 13 14 14 15 15 15 15 15 15 15 15 14 15 15 15 15 15 15 16 16 16 17 16 16 16 15 15 15 15 15 15 16 15 15 14 15 16 17 18 18 18
14 14 14 15 15 16 16 16 15 15 15 15 15 16 16 16 15 15 15 15 16 17 17 17 17 16 16 16 16 16 16 16 16 16 16 16 15 16 16 16 18 18 18

GEFSSE_500_meanwind_312.txt.gz
Wind_Speed
5 4 5 4 4 4 3 3 3 3 3 3 3 3 4 4 4 4 4 4 4 5 5 4 4 4 4 4 4 4 3 4 4 4 4 4 5 5 5 5 5 5 5
6 6 6 5 5 5 5 4 4 4 4 4 4 4 5 5 5 5 5 5 4 5 5 5 5 5 5 5 5 5 4 4 5 5 5 5 5 5 6 6 5 6 6
6 6 6 6 6 6 6 5 5 5 5 5 5 5 6 6 6 6 6 5 5 5 5 6 6 6 6 6 6 5 5 5 6 6 6 7 7 7 7 7 7 7 7
6 6 6 7 7 7 7 7 6 6 6 6 6 6 6 6 6 6 7 7 6 6 6 6 7 7 7 7 6 6 6 7 7 7 8 8 9 9 9 9 9 8 8
6 6 7 7 7 7 7 7 7 6 6 6 6 6 6 6 7 7 7 7 7 7 7 7 8 8 8 7 8 7 8 8 8 8 8 9 10 10 10 10 10 9 9
5 6 6 7 6 6 6 6 6 6 6 6 7 7 7 7 7 7 7 7 8 8 8 8 9 9 9 8 8 8 9 9 9 9 9 9 10 10 10 10 10 10 10
5 5 6 6 6 6 6 6 7 7 7 7 7 7 7 7 7 7 8 8 8 8 9 9 9 10 10 10 9 9 9 10 10 9 10 9 9 9 10 10 11 11 11
5 5 5 5 6 6 6 7 7 7 7 7 7 7 7 7 7 7 8 9 9 9 9 10 10 10 10 11 11 11 11 11 11 11 10 10 10 10 11 11 12 12 12
5 5 5 5 6 6 6 7 7 7 7 7 7 7 7 7 7 8 8 9 10 10 10 11 11 11 11 12 12 12 12 12 12 12 12 12 12 12 12 13 13 13 13
5 4 5 5 5 6 6 6 6 6 6 7 7 7 8 8 8 8 8 9 9 10 11 11 12 12 13 13 13 13 13 13 14 13 14 14 14 14 14 14 14 14 14
5 4 5 5 5 5 6 6 6 6 7 7 8 8 8 8 9 9 9 10 10 10 11 12 12 13 13 14 14 14 14 14 14 15 15 15 15 14 14 14 14 14 14
5 5 5 5 5 5 6 6 6 7 8 8 8 9 9 9 9 10 10 11 11 11 11 12 12 13 13 14 14 14 14 15 15 15 15 15 15 15 14 14 14 15 14
5 5 6 6 6 6 6 6 6 7 8 9 9 9 9 9 9 10 10 11 11 12 12 12 12 13 13 14 14 14 14 15 15 15 15 14 14 15 15 14 14 14 15
5 5 6 6 6 6 7 7 7 7 8 9 9 9 9 9 10 10 11 11 12 13 13 13 13 13 13 14 14 14 14 14 14 14 14 14 13 13 14 14 13 13 14
6 6 6 7 7 7 7 8 8 9 10 10 10 10 10 10 10 11 11 11 12 12 12 12 13 13 13 14 14 14 13 13 14 13 13 13 13 13 13 13 13 13 13
6 7 8 7 7 8 8 8 9 10 10 10 11 11 11 11 12 12 12 12 12 12 12 12 13 13 13 13 13 13 13 13 14 14 14 13 13 13 13 13 13 13 13
8 8 8 8 8 8 9 9 10 10 11 12 12 12 12 12 12 13 13 13 13 13 13 13 13 13 13 13 13 13 13 13 13 13 13 13 13 13 13 13 13 13 13
9 9 9 9 9 10 10 11 11 11 12 12 13 13 13 13 13 13 13 13 13 13 14 14 13 13 13 13 13 13 13 12 13 13 13 13 13 13 13 14 14 14 13
10 10 10 10 10 11 11 11 12 12 12 13 13 13 13 13 14 14 14 14 14 14 14 14 14 14 13 13 13 14 14 13 13 13 13 13 13 13 14 14 14 14 14
10 11 10 11 11 11 12 12 12 12 12 13 14 14 14 14 14 14 14 14 14 14 14 14 14 14 14 14 14 14 14 14 14 14 14 15 15 15 15 15 15 15 15
11 11 11 11 11 11 11 11 11 12 13 14 14 14 14 14 14 15 15 14 15 14 14 15 15 14 15 15 15 15 15 15 15 15 15 15 16 17 17 17 16 16 16
11 11 12 12 11 12 12 11 11 12 12 13 14 14 14 15 15 15 15 15 15 15 15 15 15 15 15 16 16 16 16 16 16 16 16 16 17 17 17 17 17 17 17
11 11 11 12 12 12 12 12 12 12 13 13 13 14 14 15 15 15 15 15 15 15 15 15 16 16 16 16 16 16 17 17 17 16 16 16 17 17 18 18 18 18 18
11 11 12 12 12 12 12 13 13 13 13 13 13 14 14 15 15 15 15 16 16 15 15 15 16 16 16 17 17 16 17 17 17 16 16 16 17 17 18 19 19 18 18
12 12 12 12 12 12 13 13 13 13 13 14 14 14 15 15 15 15 15 16 15 16 16 16 16 17 17 17 17 17 17 17 16 17 17 16 17 18 19 19 19 18 19
13 13 13 13 12 13 13 13 13 13 14 14 15 15 15 16 15 16 16 16 16 17 17 17 17 17 18 18 17 17 17 17 17 17 17 17 17 18 18 19 19 18 19

GEFSSE_500_meanwind_318.txt.gz
Wind_Speed
5 5 4 5 5 5 5 5 4 4 3 3 4 5 5 5 4 4 5 5 5 5 5 5 5 4 4 4 4 4 4 5 5 5 5 5 5 5 6 5 5 5 6
5 5 5 5 5 5 5 5 5 5 4 4 5 5 6 6 6 5 6 6 5 6 6 6 5 5 5 5 5 4 4 5 5 5 5 6 6 6 7 6 6 6 6
6 6 6 6 6 6 6 6 6 5 5 5 5 5 6 6 6 7 7 6 6 7 7 7 6 6 6 6 6 5 5 5 5 5 6 6 7 8 8 7 7 8 8
6 6 6 6 7 7 7 7 6 6 6 6 6 6 6 6 7 7 8 7 7 7 7 7 7 6 6 7 7 6 6 6 6 7 7 7 8 9 9 9 8 8 9
6 6 7 7 7 7 7 7 6 6 7 7 7 6 6 6 6 7 8 8 8 8 8 8 8 8 7 8 8 7 7 6 6 7 7 8 9 10 10 10 10 10 10
7 7 7 7 7 7 8 7 7 8 8 7 8 8 7 7 7 7 7 8 8 9 9 8 8 9 9 8 8 8 8 8 7 8 8 9 10 10 11 11 11 11 11
6 6 6 7 7 7 7 7 8 8 8 8 8 8 8 8 8 7 8 8 8 8 9 9 9 9 10 10 9 9 9 9 9 9 10 10 10 11 11 11 11 11 12
6 6 6 6 7 7 7 7 8 8 7 7 7 7 8 8 8 8 8 8 8 8 9 10 10 10 11 12 11 11 10 11 11 11 11 11 12 12 12 12 12 12 12
6 6 6 6 6 7 6 6 7 7 7 7 7 7 7 7 7 8 8 8 9 9 10 10 11 11 12 12 12 12 12 12 12 12 12 12 12 13 14 13 13 13 13
6 6 7 6 6 6 6 6 6 7 7 7 7 7 7 8 8 8 9 9 9 9 10 11 11 11 11 12 13 13 14 14 13 14 13 13 13 14 14 14 14 14 13
6 6 6 6 6 6 6 6 6 7 7 7 8 8 8 8 9 9 9 10 10 11 11 12 12 12 12 12 13 14 14 14 14 14 15 14 14 14 14 14 14 14 14
6 6 6 6 6 6 6 7 7 8 8 8 8 9 9 9 9 9 10 10 11 11 12 12 12 12 12 13 13 13 14 14 15 15 15 15 14 14 14 14 14 14 14
6 7 7 7 7 7 7 7 8 8 9 9 10 10 10 10 10 10 10 10 11 12 12 13 13 13 13 13 13 14 14 14 14 14 14 14 15 14 14 14 14 14 14
6 6 7 7 7 7 8 8 8 8 9 10 10 10 10 10 11 11 11 12 12 12 12 13 13 13 14 14 14 14 14 14 13 13 13 13 14 14 14 14 14 14 14
6 6 7 8 8 8 8 8 9 9 10 10 11 11 11 11 11 11 11 12 12 12 12 12 12 13 13 13 13 13 13 13 13 13 13 13 13 13 13 14 14 14 13
7 7 8 8 8 9 9 9 9 10 11 11 11 11 11 11 12 12 12 12 12 12 12 13 13 13 13 12 12 12 12 12 13 13 13 13 13 13 13 14 14 14 14
8 8 8 9 9 9 9 10 10 11 11 12 12 12 12 12 12 12 12 12 12 13 13 13 14 13 12 12 12 12 12 12 12 13 13 13 13 13 14 14 15 15 15
9 9 9 9 9 10 10 10 10 11 11 11 12 12 12 12 12 13 13 13 13 13 13 14 14 13 13 13 12 12 13 13 13 13 13 13 14 14 14 15 15 15 15
10 10 10 10 10 10 10 10 10 10 11 11 12 12 13 13 13 13 14 14 14 14 14 14 14 14 14 14 13 13 13 13 13 14 14 14 15 15 15 15 16 15 16
11 11 11 11 11 11 11 10 11 11 11 11 12 12 13 13 13 13 14 14 14 14 14 14 14 14 14 14 14 14 14 14 14 15 15 15 15 16 16 17 17 17 17
12 12 12 11 11 11 10 10 11 11 11 11 12 12 13 14 14 14 13 14 14 14 14 14 15 15 15 15 15 15 15 15 15 15 15 16 16 16 16 17 17 17 17
12 12 12 12 12 11 11 11 11 11 12 12 13 13 13 13 13 13 13 13 14 14 15 15 15 15 15 15 15 15 16 16 16 16 16 16 16 16 17 17 18 18 18
13 12 12 11 12 12 12 12 12 12 13 13 13 13 13 13 13 13 13 14 14 14 15 15 15 15 15 15 15 15 16 16 17 17 17 17 17 17 17 18 19 19 19
13 13 13 13 13 12 12 12 13 13 14 14 13 13 13 14 14 14 14 14 15 15 15 16 16 16 16 16 16 17 17 17 18 18 18 18 18 18 18 19 19 19 19
14 14 14 14 13 13 13 12 13 13 14 14 14 14 14 14 15 15 15 15 16 16 16 16 16 16 16 16 17 17 17 17 18 18 19 19 19 19 19 20 20 20 21
14 15 15 15 14 14 14 14 14 14 15 15 15 15 15 15 16 16 16 16 16 17 17 17 17 17 17 17 17 17 18 18 18 19 19 19 19 20 20 21 21 22 22